GFSGBSN_sfc_dewp_072.txt.gz
Dewpoint
46 47 48 47 46 47 47 47 48 48 48 47 47 49 49 49 49 49 50 50 50 48 48 48 49 50 47 39 35 32 49 44 52 48 45 43 36 23 19 22 24 29 30 30 29 26 24
47 47 47 46 48 46 46 46 48 48 47 46 47 48 49 48 48 48 48 49 49 49 48 48 49 49 45 34 29 30 29 31 33 36 30 38 35 28 23 25 24 27 29 29 28 24 22
47 47 48 48 47 46 47 47 47 47 47 46 47 48 48 47 47 46 48 49 49 49 48 48 49 46 41 36 35 31 35 34 28 22 17 19 22 19 25 31 32 29 25 23 23 23 22
47 48 47 48 49 49 48 48 48 47 47 46 48 47 48 48 48 48 48 48 48 49 48 49 49 47 40 40 40 38 36 33 31 26 21 21 26 21 23 30 31 29 28 24 24 22 22
46 46 46 48 49 49 48 48 48 47 47 48 47 47 48 48 48 48 48 48 48 49 49 49 49 46 39 46 41 39 38 33 28 27 27 25 25 21 23 28 27 29 25 24 22 22 21
45 45 45 45 46 47 48 47 48 48 47 46 46 45 47 47 48 47 47 47 47 49 48 48 45 43 42 34 33 26 29 30 31 28 31 27 24 21 23 27 24 26 25 26 21 20 22
44 45 45 45 44 45 45 45 48 48 47 45 45 44 45 47 47 47 44 42 37 35 37 37 39 40 39 37 32 26 26 24 36 26 26 29 25 22 21 23 27 27 26 25 26 27 25
46 46 45 45 45 45 44 45 46 47 46 46 46 45 45 46 47 47 45 41 39 37 34 35 36 35 35 34 31 30 29 22 32 30 30 31 27 27 28 29 29 28 26 25 26 25 24
44 44 44 45 46 45 45 45 45 45 46 45 46 45 45 47 47 43 37 38 41 39 33 33 31 30 33 31 29 26 27 22 31 31 31 30 32 32 30 30 29 27 26 27 28 25 24
44 45 45 45 46 46 45 45 44 44 45 46 47 47 47 47 39 38 37 38 38 42 31 27 30 31 31 31 28 29 25 24 30 30 35 35 38 34 31 31 31 26 28 31 31 27 22
44 43 42 42 44 45 46 45 44 44 44 45 46 47 46 44 40 37 37 37 38 41 11 22 25 30 31 26 25 23 24 25 27 36 37 32 37 37 35 31 30 30 32 35 33 31 30
42 42 43 41 41 42 43 44 44 45 45 44 45 46 45 40 38 39 38 37 40 29 13 22 27 26 29 28 27 22 22 24 26 36 37 34 38 38 35 37 35 33 36 36 33 31 27
41 42 42 40 41 41 42 44 44 45 44 44 44 45 43 40 35 37 38 39 26 22 17 18 24 25 27 26 26 21 21 19 24 25 28 31 35 35 37 34 36 35 36 30 27 27 24
41 42 40 39 40 42 43 42 43 44 44 44 44 45 43 40 39 38 37 32 20 18 20 21 21 22 24 18 23 22 20 19 20 24 19 20 21 33 35 33 33 33 37 32 24 25 27
39 41 41 40 39 40 41 42 43 43 43 43 44 39 38 39 40 38 36 22 20 19 21 22 22 15 15 14 17 23 20 19 18 21 19 19 23 30 32 32 31 32 34 35 33 33 29
39 41 40 39 40 40 41 41 42 42 42 43 37 35 36 36 39 39 32 20 21 21 23 21 20 21 18 21 19 21 25 31 27 23 23 24 21 24 31 33 34 34 35 32 34 26 26
40 38 40 39 38 40 41 41 41 41 42 42 35 30 33 37 40 36 23 23 22 23 21 25 25 23 20 20 20 21 31 34 29 29 30 31 27 25 30 32 30 36 37 37 34 32 30
38 37 38 38 39 40 40 40 40 41 41 39 33 24 33 42 29 32 25 25 26 21 24 23 26 26 21 21 19 20 26 33 32 31 30 30 30 29 27 31 32 34 35 37 34 30 31
37 37 39 40 40 40 41 41 41 40 40 36 33 31 34 36 26 25 28 27 27 26 24 21 24 26 23 22 19 24 28 32 31 31 26 29 30 27 24 30 32 31 32 36 37 36 34
37 39 39 40 40 40 40 40 40 42 41 38 33 23 27 31 30 27 28 28 28 29 26 25 24 26 22 22 23 21 24 33 33 32 37 34 29 28 26 30 33 36 32 34 37 33 31
39 39 40 40 40 40 41 40 39 40 40 40 35 25 27 19 29 30 29 27 25 23 30 31 24 24 21 20 21 21 26 27 33 38 35 33 26 32 32 31 29 32 32 35 36 34 34
39 39 39 39 39 39 39 40 41 40 40 38 30 25 29 27 28 27 26 22 19 23 33 29 27 32 29 23 21 23 28 29 31 33 33 34 28 31 30 31 31 29 31 34 35 36 37
38 39 39 39 39 40 39 40 40 40 40 36 36 33 30 25 25 22 27 27 24 27 33 33 30 32 31 30 35 31 31 31 31 30 31 31 30 28 25 30 30 29 31 32 35 35 36
39 40 40 39 39 40 40 41 41 40 40 38 34 32 28 21 23 21 19 21 24 27 31 32 33 34 33 38 37 34 31 30 30 31 31 30 29 29 26 28 22 28 26 28 31 36 40
39 39 38 39 39 40 40 41 42 42 40 38 37 36 32 24 24 24 25 24 25 29 30 33 32 36 39 35 29 24 24 24 25 27 29 31 29 24 22 24 23 19 29 33 34 37 41
39 40 40 40 39 41 41 41 42 42 42 40 38 37 36 28 22 23 24 26 26 30 31 33 37 39 37 33 30 21 19 21 20 24 27 28 29 25 26 21 20 29 30 34 37 34 41
39 38 38 39 40 41 42 42 42 43 43 41 38 38 36 30 29 28 26 27 31 32 30 34 33 33 35 30 24 23 21 24 20 23 26 26 26 23 23 22 24 29 32 34 30 35 42
38 38 39 40 41 42 42 42 43 44 44 42 38 39 35 31 30 29 29 28 28 30 27 32 32 34 32 24 25 24 22 24 24 27 28 26 26 23 24 22 19 29 35 30 40 41 42
39 40 41 42 42 42 42 43 43 44 44 42 37 39 39 35 29 35 33 33 30 31 31 34 33 33 36 31 27 28 23 24 26 23 35 28 32 29 25 23 37 40 40 41 40 38 39

GFSGBSN_sfc_dewp_075.txt.gz
Dewpoint
46 46 46 47 47 46 46 46 47 48 47 47 47 47 48 48 48 48 48 49 48 47 47 47 47 48 45 39 35 32 48 41 38 49 47 45 38 29 20 20 23 30 32 31 31 30 27
47 46 48 47 46 46 46 47 47 47 47 46 46 48 48 48 47 46 48 49 49 48 47 47 48 48 42 34 32 29 30 31 28 44 42 41 37 33 27 22 20 24 25 27 29 29 30
47 46 47 48 47 47 47 47 48 47 47 47 47 48 47 46 46 46 47 49 48 48 47 47 48 46 41 37 38 36 38 34 30 25 21 18 22 19 22 22 29 29 28 28 26 25 25
47 47 47 48 48 48 48 47 48 47 47 47 47 47 48 47 47 48 48 47 48 48 48 49 49 45 39 42 41 40 38 35 35 34 25 23 23 22 19 22 30 29 29 26 27 25 24
46 46 45 45 46 48 48 47 47 47 46 46 46 47 47 47 48 47 47 47 48 49 50 49 47 45 38 44 43 41 36 32 31 29 27 23 25 21 21 21 26 28 25 25 25 24 23
45 44 44 44 44 44 45 45 47 48 47 47 46 46 47 47 47 47 46 47 49 48 48 48 46 42 41 33 37 33 33 34 31 28 29 26 24 20 22 26 21 25 25 26 23 23 24
45 44 44 44 44 44 44 44 46 47 46 46 46 46 46 47 47 46 45 43 39 36 37 37 38 39 37 38 33 28 29 26 33 25 23 28 22 20 20 22 26 27 26 25 25 27 27
44 45 45 45 45 45 45 44 45 45 46 46 46 45 45 46 47 46 40 38 35 36 36 37 35 34 38 38 33 31 30 25 24 29 27 28 26 26 25 24 26 27 26 25 27 28 28
43 44 44 44 45 45 46 45 45 44 44 45 46 45 45 47 46 39 35 37 37 36 34 31 30 30 32 34 31 28 27 25 28 28 29 26 28 33 29 28 28 28 26 27 27 30 29
43 44 43 43 44 45 45 45 45 44 44 44 45 46 47 46 36 38 36 37 35 38 29 25 29 30 31 31 29 28 28 24 26 30 32 31 33 34 31 30 31 29 28 28 32 31 26
40 43 42 40 41 42 42 43 44 44 44 45 45 44 47 44 38 36 36 36 36 40 13 18 29 32 31 27 25 27 27 25 29 36 35 31 35 36 34 32 32 31 33 35 34 33 31
39 41 41 40 40 41 41 42 43 44 44 45 44 44 46 39 38 38 37 38 40 26 7 17 28 28 27 28 26 22 22 25 27 35 37 33 38 36 35 35 35 33 37 37 34 32 30
39 41 40 39 40 41 43 43 43 43 44 43 44 44 43 41 34 37 38 36 24 20 18 20 22 24 28 28 26 21 20 20 23 25 27 31 34 35 37 33 36 35 35 28 27 28 26
38 40 41 38 38 39 41 42 42 43 43 43 43 44 42 40 39 38 36 30 19 15 19 23 21 22 23 26 27 22 20 18 20 25 22 22 15 34 36 33 33 34 34 29 23 24 23
37 37 40 39 39 39 40 41 42 42 42 43 42 38 36 37 39 38 33 19 16 20 22 21 20 21 20 21 20 20 20 20 19 23 19 18 19 31 35 33 34 36 33 34 34 33 28
37 39 40 39 38 39 40 41 41 41 42 43 36 34 34 37 39 38 28 19 21 22 22 19 20 25 21 20 19 21 20 27 24 22 22 21 19 24 31 34 35 36 36 32 34 25 24
41 39 36 38 38 38 39 40 41 40 40 41 33 28 31 37 39 35 22 21 23 22 23 22 23 25 29 22 20 21 26 32 29 31 27 29 23 23 33 33 33 36 36 36 34 33 29
39 36 36 36 37 40 40 40 40 40 40 37 31 18 31 37 31 27 22 26 27 24 26 25 24 22 30 28 20 23 23 32 36 32 30 31 31 28 27 30 33 36 35 37 32 30 31
39 36 36 38 40 40 40 40 41 41 40 34 29 28 34 38 20 23 26 26 27 25 25 25 21 21 28 30 27 26 29 32 32 29 30 30 29 24 24 30 32 34 35 36 36 36 33
37 37 39 39 39 40 40 40 40 39 40 37 32 16 23 30 28 23 20 24 22 28 26 27 26 26 26 27 28 24 27 26 33 32 38 33 28 26 21 28 33 32 33 36 36 33 33
37 37 40 39 40 39 39 39 40 39 39 38 34 24 25 15 27 27 29 28 24 23 23 28 26 26 26 24 23 25 27 29 34 37 35 30 23 31 31 31 30 30 29 31 34 36 34
35 37 40 39 40 39 39 39 40 40 41 37 31 27 29 26 27 24 25 24 23 26 28 25 26 28 30 30 26 23 26 28 30 32 32 33 27 29 27 29 30 25 26 28 29 34 36
39 37 38 39 39 39 40 39 39 39 40 34 36 36 29 24 24 19 18 25 22 23 27 29 31 32 29 30 33 35 33 32 30 29 29 29 28 26 22 26 26 24 29 24 28 35 34
37 37 38 40 40 39 39 41 41 42 40 36 33 32 28 20 22 21 22 22 23 23 23 28 31 33 33 35 37 35 30 30 31 30 32 30 29 28 23 25 16 22 16 32 31 33 36
39 39 40 39 38 38 39 40 41 41 41 39 38 36 30 22 24 22 24 24 24 28 27 27 33 35 40 36 29 25 24 23 24 27 29 31 28 24 20 21 18 16 29 34 35 37 41
39 39 39 39 39 41 41 41 40 42 40 41 37 39 36 27 23 23 22 25 24 28 30 33 36 38 39 34 29 21 18 21 19 22 28 30 29 24 25 19 15 24 25 34 33 33 40
39 39 40 38 38 40 41 41 41 42 42 42 40 39 37 30 29 29 27 26 31 30 29 32 30 34 35 29 24 23 21 24 18 22 25 25 26 24 22 20 22 25 25 33 26 35 42
39 38 38 38 39 41 40 41 41 41 42 42 36 41 36 30 28 30 31 28 27 28 27 31 31 31 32 25 25 24 23 24 24 25 26 26 25 22 23 22 19 35 38 29 34 42 40
38 38 38 40 40 41 41 41 41 42 42 42 37 41 39 32 27 34 33 33 30 29 29 31 30 33 33 29 29 30 22 22 24 21 32 20 29 28 26 24 36 36 37 38 40 39 38

GFSGBSN_sfc_dewp_078.txt.gz
Dewpoint
47 46 47 47 48 47 47 47 47 47 48 47 47 47 48 48 47 46 46 48 46 46 47 47 47 47 45 38 33 31 43 38 42 48 42 44 37 30 22 20 22 26 28 30 31 31 30
47 46 47 49 47 47 47 47 47 48 47 47 48 48 48 47 46 45 45 47 48 47 47 47 48 46 43 33 32 30 35 34 29 45 43 43 38 35 29 25 21 22 21 22 25 27 30
48 46 47 47 47 48 48 48 47 48 48 47 47 47 47 46 46 45 46 48 48 48 48 49 48 45 42 35 39 38 40 35 31 28 27 26 30 21 19 19 23 28 28 29 29 27 28
48 47 46 47 48 48 48 48 47 47 48 47 47 47 47 47 46 47 48 47 47 49 50 51 49 44 39 41 42 40 40 38 37 34 30 25 21 21 19 21 25 27 29 26 27 28 26
45 46 45 44 45 45 46 47 46 48 48 47 47 47 47 48 48 48 47 47 48 50 50 50 45 43 37 44 42 43 39 33 31 32 29 24 24 23 21 18 19 26 24 25 26 27 25
46 45 44 44 44 44 44 45 45 47 47 47 46 46 46 47 47 47 46 47 47 49 48 48 45 41 39 30 39 35 35 37 28 28 28 25 25 20 23 21 14 23 25 26 25 25 26
45 45 44 44 44 44 44 44 45 45 45 45 45 45 45 46 46 46 44 41 36 36 37 34 36 39 36 36 36 30 30 28 30 28 23 27 22 21 20 23 22 25 25 25 26 27 27
45 44 45 45 45 45 46 45 45 44 44 45 45 45 45 45 46 44 37 36 33 34 32 36 37 37 36 36 35 32 32 25 29 29 27 27 24 24 23 22 22 22 23 25 26 27 27
43 43 44 44 44 45 45 46 45 44 44 44 44 45 45 45 44 37 37 36 35 35 34 33 31 30 32 33 32 31 29 26 23 26 28 25 24 30 27 27 26 27 27 27 26 28 30
43 44 44 43 43 43 43 44 44 44 44 45 45 45 46 46 35 37 35 37 35 37 28 22 27 31 32 32 30 31 29 24 24 24 31 30 30 29 31 30 29 28 30 29 28 32 25
42 44 42 40 41 41 41 41 43 44 44 45 45 44 45 44 37 33 34 37 36 38 -2 12 29 32 32 30 27 26 28 26 24 32 34 31 35 35 32 31 32 30 33 34 34 32 32
39 40 41 40 39 40 43 43 43 43 44 43 44 44 43 39 38 36 37 37 38 17 -5 16 27 27 26 28 27 23 25 25 30 36 36 32 37 36 34 35 35 34 35 35 34 32 27
38 40 41 40 38 39 41 41 42 43 43 43 43 43 41 41 34 37 37 35 16 13 15 20 21 20 22 24 27 22 21 21 24 23 24 29 33 36 36 32 36 35 33 26 26 27 24
39 39 41 39 38 38 39 41 42 42 42 43 43 43 40 40 38 37 35 26 9 13 19 23 19 20 23 24 24 23 20 19 20 24 25 23 14 34 36 32 32 34 33 25 22 25 26
36 36 39 40 38 38 39 41 41 41 42 43 42 35 34 36 37 37 29 16 11 21 20 20 19 25 23 25 25 21 20 19 20 24 20 19 17 33 36 34 34 34 34 36 33 31 29
36 38 39 40 37 37 38 40 41 41 41 42 34 32 30 36 38 35 23 18 20 22 22 23 21 27 25 26 26 22 21 23 20 24 22 21 18 25 32 34 36 36 37 33 34 24 24
37 40 37 36 37 37 37 39 40 40 41 41 32 26 30 37 37 29 13 19 23 23 26 24 22 20 20 23 28 26 25 30 34 29 23 26 22 23 33 33 33 35 35 35 36 34 26
37 39 36 35 37 37 39 40 40 40 41 37 29 16 30 36 24 28 19 25 26 25 27 26 25 22 22 28 25 30 29 33 38 36 30 30 30 25 26 30 35 35 35 35 32 30 32
37 38 35 35 39 39 39 39 40 41 40 33 26 26 32 34 15 21 25 25 25 25 25 25 25 25 24 26 25 30 34 35 34 36 34 29 30 22 23 28 34 35 36 36 36 36 30
35 37 36 38 38 38 39 39 39 39 41 34 29 16 22 32 28 25 21 23 23 25 26 28 26 27 26 26 29 28 31 34 34 35 39 32 29 22 18 22 31 30 29 30 34 32 32
38 37 36 39 39 39 38 38 39 38 40 36 31 23 24 15 26 25 25 26 24 23 26 27 25 27 26 25 27 28 32 34 34 36 36 29 24 30 29 29 30 29 29 29 29 32 32
37 36 36 39 39 40 38 38 38 40 41 34 28 24 27 26 27 23 23 22 23 26 26 23 29 27 27 27 27 27 29 30 30 31 33 32 28 28 25 27 25 20 18 21 24 28 33
36 37 36 39 38 39 38 39 39 40 38 33 33 36 28 24 24 18 16 20 21 23 23 23 26 25 25 27 31 31 33 35 34 30 29 29 28 25 21 24 22 14 23 18 23 26 30
37 37 37 38 38 39 39 39 40 40 39 33 31 30 25 19 23 20 21 22 22 22 23 25 28 27 30 35 36 34 36 36 33 29 31 30 27 27 22 22 11 12 17 22 33 35 34
37 38 37 38 40 39 39 39 41 41 41 38 34 32 25 18 23 21 22 23 24 24 24 27 30 36 37 36 33 27 25 25 24 28 28 30 28 24 18 20 18 18 28 31 29 27 37
38 38 39 40 40 39 40 39 41 41 41 41 38 36 34 24 23 23 21 22 23 23 26 30 33 36 36 32 29 21 19 19 19 23 29 30 28 23 24 18 12 17 23 29 30 28 41
38 39 39 39 40 40 39 41 40 40 41 41 40 39 36 29 28 30 26 24 29 28 26 30 30 32 36 30 27 24 21 23 17 20 24 25 26 24 23 19 21 25 34 36 25 28 40
39 39 39 39 38 38 39 39 40 41 41 41 40 41 36 31 28 29 30 27 28 28 25 28 28 29 29 26 27 25 24 24 24 24 25 23 24 22 24 22 18 36 37 31 37 39 36
39 39 39 39 39 39 39 40 40 41 41 41 37 40 41 33 29 32 33 30 30 31 29 30 28 30 33 28 29 30 26 25 25 21 28 21 27 26 26 24 35 34 33 37 39 38 35

GFSGBSN_sfc_dewp_084.txt.gz
Dewpoint
49 49 49 49 49 49 47 46 46 46 47 47 47 48 47 47 47 47 47 47 46 46 47 48 48 48 44 31 17 25 39 36 41 41 33 26 21 18 16 16 15 20 17 17 21 21 21
50 49 48 49 49 48 47 46 46 46 47 47 47 47 47 47 47 46 46 47 47 47 48 49 49 48 41 26 26 28 29 29 29 36 33 35 29 28 26 25 22 21 23 22 22 23 23
51 49 48 48 49 48 47 47 47 46 47 47 47 47 47 47 46 46 45 47 48 48 49 51 50 45 40 28 31 32 33 27 25 29 29 33 35 28 24 24 23 23 19 18 18 19 22
51 50 49 49 49 48 48 47 46 46 46 46 46 46 46 46 46 46 46 48 48 48 51 51 50 44 36 35 36 37 37 33 29 26 25 27 33 30 26 21 19 18 18 16 14 24 26
50 50 49 48 47 46 45 45 45 45 45 44 44 44 45 46 47 47 47 48 47 50 51 50 45 42 28 38 35 38 39 33 32 35 31 26 24 23 21 18 15 17 10 10 17 23 23
51 50 48 47 46 45 44 44 46 43 43 44 43 44 44 44 46 46 47 46 47 50 46 46 42 39 35 28 36 35 37 35 29 33 28 26 23 21 19 16 8 10 14 15 17 17 20
49 48 47 46 46 45 44 44 46 43 43 44 43 44 45 44 45 46 42 36 29 32 29 22 21 27 22 24 29 28 29 30 27 28 16 21 18 16 14 18 16 14 12 10 14 16 20
48 47 47 46 46 46 45 46 46 44 44 44 44 45 44 44 44 42 37 31 31 32 29 29 30 30 31 31 27 24 31 26 27 25 23 23 17 14 15 16 18 16 15 15 17 20 24
49 47 47 46 46 46 45 45 45 43 43 44 45 44 44 44 42 39 35 33 34 36 31 24 28 30 29 33 29 27 28 27 25 24 27 23 21 25 22 22 21 20 18 18 20 26 27
47 46 46 46 45 43 42 41 41 42 42 43 44 44 44 44 35 34 33 33 35 40 20 2 28 28 28 31 30 30 29 23 25 21 23 26 24 26 23 21 22 18 24 27 27 26 21
46 46 45 44 43 42 42 42 42 42 42 42 42 43 43 42 34 28 30 35 38 41 -11 12 26 30 13 27 27 26 29 25 20 22 25 21 24 25 23 21 27 24 30 29 29 27 27
45 44 44 43 42 43 43 43 42 41 41 41 42 42 43 37 36 32 36 39 41 13 -16 7 21 13 15 21 25 24 24 26 22 21 24 21 30 34 29 30 25 30 30 29 29 28 26
43 43 44 42 42 41 42 41 41 41 42 42 42 42 38 37 31 38 39 36 3 -10 4 12 15 11 15 23 21 24 23 24 23 19 19 19 23 26 34 30 33 30 26 19 23 26 18
41 42 43 42 41 41 41 41 41 41 41 41 42 38 38 36 39 41 38 13 -11 7 11 15 13 6 12 22 17 25 22 22 24 23 20 19 19 26 32 28 23 27 23 19 16 18 18
42 43 43 41 41 40 40 40 40 40 40 42 38 36 38 39 42 40 24 6 -1 14 16 15 5 3 6 15 6 19 23 23 22 23 22 20 17 29 33 32 28 30 30 29 29 27 25
40 40 42 42 41 39 39 40 40 39 40 41 32 32 34 41 43 33 21 10 14 18 18 15 3 10 7 5 2 5 15 34 34 33 35 25 19 26 33 34 34 32 32 31 32 23 19
39 41 42 41 39 38 39 39 39 39 41 38 32 26 34 41 40 26 23 11 15 19 21 17 14 12 10 12 14 15 13 28 34 32 34 28 23 26 32 30 27 33 33 34 34 32 24
40 41 39 38 37 39 39 39 39 40 40 36 34 30 34 40 29 28 21 22 25 21 21 21 23 21 20 19 19 21 20 24 33 34 33 32 28 20 24 30 31 30 31 32 29 28 31
38 42 39 37 38 39 39 40 39 39 38 36 30 25 34 37 29 23 23 21 22 19 19 19 18 19 21 21 19 18 22 28 32 33 34 34 28 21 24 29 32 31 34 36 35 33 28
38 39 37 37 40 40 40 40 39 39 39 36 32 29 28 30 27 25 21 18 18 20 20 23 21 23 23 21 22 22 21 22 32 34 35 36 34 25 18 23 28 29 28 30 30 31 29
37 38 38 37 39 39 40 39 40 39 39 35 33 28 27 26 24 22 21 19 7 16 19 22 19 27 22 18 19 20 24 27 26 33 34 36 32 30 24 23 23 23 22 22 23 25 23
38 37 38 37 39 40 39 39 40 40 38 35 34 26 26 22 25 21 19 14 12 14 19 17 18 18 21 18 18 20 24 26 27 35 33 35 32 33 27 23 18 14 12 11 13 14 18
38 39 38 37 40 39 40 39 39 40 37 33 36 34 30 23 21 23 22 12 14 17 19 19 19 21 19 19 26 29 29 29 30 31 33 34 28 26 22 19 14 12 15 17 21 25 26
36 37 37 36 39 39 39 39 40 41 37 33 35 31 30 21 17 17 17 18 21 18 20 19 22 25 23 28 31 28 27 27 28 30 34 33 30 22 18 17 8 14 23 18 16 26 33
37 36 38 39 38 38 39 39 39 41 39 34 35 33 31 26 18 17 19 20 21 22 21 21 24 27 30 30 27 22 23 26 26 30 31 32 30 23 18 15 10 15 23 25 23 25 34
37 36 38 38 38 39 40 41 40 40 41 39 36 39 34 31 21 20 21 22 22 22 22 27 27 30 33 32 28 21 14 13 18 25 29 28 31 26 22 7 2 24 26 32 31 23 34
36 37 37 38 39 40 40 39 39 40 41 42 40 39 37 31 26 26 23 25 25 25 23 25 28 28 34 29 28 25 21 17 15 17 24 25 25 23 20 18 18 30 30 31 23 28 37
36 37 38 39 40 41 40 40 40 41 41 42 41 42 38 34 28 29 29 30 28 27 24 26 26 30 28 28 27 28 25 23 21 21 22 21 21 23 21 19 17 33 30 28 34 37 36
36 37 39 40 41 41 40 39 39 40 41 41 37 42 41 36 33 36 34 33 32 30 28 28 28 30 32 30 28 30 28 30 26 19 28 28 31 29 24 29 35 33 33 34 35 36 35

GFSGBSN_sfc_dewp_087.txt.gz
Dewpoint
53 51 51 50 50 50 49 48 48 47 47 47 48 48 48 48 48 48 47 48 47 46 47 48 49 50 45 32 22 34 42 42 35 39 35 25 20 17 19 15 14 16 15 17 18 14 16
52 51 50 50 50 50 49 48 48 47 47 48 48 48 48 48 47 47 46 47 47 47 48 49 50 49 43 28 21 21 19 26 26 33 31 27 22 20 17 17 14 16 16 16 19 17 17
53 52 51 50 50 50 49 48 48 47 47 47 47 47 47 46 46 46 46 46 47 48 48 50 51 47 37 27 25 22 25 22 16 25 27 27 28 28 24 21 20 21 19 17 16 14 14
52 52 51 50 49 50 49 48 48 47 46 46 45 45 45 46 46 45 45 47 48 48 51 52 51 45 32 29 28 26 27 25 24 19 21 27 28 29 25 22 19 16 16 11 10 10 14
53 52 51 50 50 49 48 48 47 46 44 43 43 43 44 45 46 46 47 47 47 50 50 50 47 41 30 37 30 33 34 29 22 19 21 18 21 23 23 18 15 13 8 8 5 13 17
53 53 51 51 49 47 46 46 47 44 43 43 42 43 44 45 46 47 47 46 48 50 48 43 41 39 35 25 27 33 31 33 28 28 25 21 17 14 14 12 8 6 6 7 9 8 13
52 51 51 50 48 46 46 46 47 44 43 43 43 44 45 44 45 46 43 37 38 40 34 22 21 23 15 18 23 20 26 28 28 28 24 20 14 13 14 18 15 13 11 8 7 6 11
50 52 51 49 48 47 46 46 47 44 44 43 44 44 44 44 44 44 41 28 30 33 25 21 26 27 28 30 27 23 20 21 25 22 23 18 17 17 13 14 15 16 15 12 11 12 15
50 50 49 48 48 47 47 47 46 45 43 43 44 44 44 44 44 40 33 32 33 34 30 19 27 26 27 31 28 26 23 22 20 18 20 20 18 21 15 13 14 15 15 15 13 14 19
49 50 49 48 47 47 45 45 44 43 42 42 43 43 43 44 39 31 32 29 34 39 29 13 27 25 19 25 29 28 27 24 20 19 20 20 21 21 21 18 17 16 14 15 17 22 17
49 48 47 47 46 44 43 43 43 43 42 41 42 43 43 43 35 27 28 33 38 41 10 11 25 27 12 22 21 27 26 25 20 19 22 19 21 22 21 21 19 17 20 25 25 24 24
47 48 46 45 44 43 43 43 43 42 41 41 42 43 43 39 37 31 33 37 40 29 1 12 16 11 7 14 18 22 24 26 23 17 17 19 20 23 23 23 22 22 25 26 25 23 21
47 46 46 44 43 43 43 43 41 41 41 42 42 42 39 34 32 36 39 36 23 5 -0 9 11 8 2 9 15 17 16 20 21 21 18 16 17 19 23 26 28 23 25 21 19 23 19
46 45 45 43 42 41 41 41 41 41 40 41 41 39 38 33 38 41 38 26 6 2 3 10 7 4 -6 7 10 6 10 11 13 18 16 15 14 16 18 25 24 25 25 21 12 14 19
42 42 43 42 41 41 41 41 40 40 40 41 40 37 38 39 43 40 30 14 7 10 11 10 3 -6 -2 8 3 -1 6 11 21 31 29 23 17 22 26 26 26 23 23 22 21 21 21
43 44 43 42 41 40 39 41 40 39 40 41 33 32 32 40 42 37 24 13 8 13 14 9 3 1 6 4 4 0 -0 23 30 32 32 29 23 24 26 31 28 24 27 27 29 20 17
41 41 44 42 40 39 39 39 39 39 41 39 33 27 34 39 41 26 28 12 11 14 16 14 10 10 10 12 11 11 9 22 30 29 29 31 29 24 26 28 25 27 30 31 29 26 22
40 41 43 41 39 39 39 39 39 39 40 38 33 33 34 38 30 24 21 17 22 16 17 16 19 16 16 15 14 14 14 14 29 28 23 32 34 25 24 26 28 32 28 29 28 23 25
41 42 40 38 38 39 40 39 39 40 39 32 26 25 33 37 33 23 21 17 18 15 15 15 14 15 16 17 16 15 16 17 24 28 30 31 29 25 20 28 27 26 31 31 32 32 29
41 42 39 38 39 39 40 39 38 39 39 37 32 34 28 28 25 25 19 18 16 19 15 17 16 17 18 18 18 22 21 22 28 24 35 36 30 25 21 23 28 25 25 30 32 31 27
41 39 38 38 40 40 40 39 39 39 40 37 32 31 27 29 23 21 20 18 16 14 14 16 14 22 21 17 16 16 20 20 20 33 37 36 27 27 28 29 30 29 28 28 28 28 26
39 39 38 39 40 39 39 39 39 39 40 33 36 27 24 23 21 20 18 14 10 11 16 15 16 14 16 16 16 18 17 20 24 29 30 32 29 29 30 21 20 19 19 16 15 12 11
39 39 38 37 39 40 39 38 39 39 38 30 32 33 28 21 21 23 23 15 13 16 17 15 16 17 17 17 19 23 25 26 26 26 31 30 30 31 26 25 18 16 15 11 16 20 26
39 40 38 37 39 39 40 39 39 39 38 31 31 28 29 23 16 17 17 17 19 18 19 17 19 22 19 22 25 25 24 23 25 25 27 28 30 31 24 20 15 21 18 17 15 29 29
38 38 38 36 38 39 39 39 39 40 40 33 32 30 30 28 17 17 19 19 20 21 21 20 18 22 27 26 25 19 19 23 22 23 26 30 33 28 22 23 12 16 22 23 24 31 33
37 36 37 40 39 39 39 40 39 40 41 38 34 35 31 32 20 20 22 21 21 23 24 24 23 28 30 32 26 19 15 15 16 18 24 29 29 29 21 11 11 27 25 26 26 25 34
38 37 38 39 39 40 40 40 40 40 41 41 41 40 34 33 26 26 23 25 25 24 26 24 27 27 32 29 27 25 21 19 16 16 22 24 24 23 22 17 20 29 28 29 21 31 36
38 38 38 39 39 41 41 40 40 40 40 42 41 41 38 36 29 28 28 27 27 28 24 27 27 30 30 29 29 26 30 23 20 19 20 19 20 22 20 18 18 33 29 30 33 36 35
37 38 39 39 41 40 41 41 40 40 41 41 38 40 39 37 32 37 35 34 32 30 30 27 30 32 33 28 26 27 30 30 25 19 27 28 30 30 32 32 34 33 33 33 34 34 34

GFSGBSN_sfc_dewp_090.txt.gz
Dewpoint
56 57 55 54 53 51 50 50 49 49 48 48 48 48 48 48 48 48 48 48 47 47 47 48 49 50 45 35 30 38 51 51 41 34 36 29 21 17 15 15 19 19 17 18 19 19 19
56 56 55 53 52 51 50 50 49 48 48 48 48 48 48 48 48 47 46 47 47 46 47 49 50 50 43 27 21 23 22 22 26 29 29 29 22 19 15 14 14 15 11 10 11 14 11
56 56 54 53 52 51 51 51 50 49 48 48 48 48 47 46 46 46 46 46 47 47 48 50 51 48 38 29 22 24 22 19 15 16 23 27 25 23 23 21 21 20 18 18 18 18 17
56 55 53 52 52 51 51 51 49 48 48 48 47 45 44 45 45 46 46 47 47 48 50 52 52 46 30 27 28 24 23 21 21 19 16 22 26 26 27 27 23 17 17 14 12 9 9
57 55 53 52 52 51 51 50 50 49 48 46 44 43 44 45 46 47 47 48 48 48 51 51 48 43 28 36 25 28 31 28 26 23 20 14 17 23 24 22 18 16 11 11 8 8 10
56 54 53 52 50 50 50 50 49 48 46 44 44 44 44 45 47 47 47 47 47 50 49 45 40 38 37 26 26 27 31 30 28 25 18 17 15 14 14 14 14 13 9 7 6 6 7
55 54 53 51 50 50 49 48 47 47 45 44 44 44 44 45 45 46 44 39 39 43 42 33 30 32 25 13 24 21 17 23 28 25 25 22 16 11 12 13 12 14 13 14 13 14 12
55 54 52 51 50 49 48 47 48 47 45 44 43 44 44 44 44 46 42 31 29 32 24 22 18 20 24 29 28 24 19 17 21 22 22 23 18 17 15 15 15 14 14 13 14 15 14
54 53 51 51 50 48 47 47 48 47 45 44 43 43 44 44 44 41 31 30 30 33 29 22 24 26 25 29 28 24 23 17 16 17 19 19 19 18 17 16 14 13 12 11 11 12 14
52 52 51 50 49 48 48 47 48 46 44 43 42 43 43 44 40 30 34 27 33 38 29 19 21 24 24 19 28 27 26 24 21 18 17 14 17 17 17 19 17 15 15 15 14 12 11
51 51 50 50 49 49 47 46 44 43 42 42 42 42 43 43 39 30 29 31 35 41 15 14 24 26 14 17 18 23 26 24 22 19 18 17 17 17 17 18 20 18 18 16 18 20 22
49 49 50 50 48 45 44 43 43 42 41 41 42 42 43 39 41 32 34 37 39 33 12 10 15 14 3 6 12 17 21 26 24 19 17 15 16 17 19 20 19 19 19 19 20 22 21
48 48 48 47 45 44 44 43 43 41 41 41 41 41 38 34 35 37 39 37 29 18 0 8 9 8 4 -2 -2 13 11 16 17 20 21 17 14 14 18 20 23 24 23 17 17 20 19
47 47 46 45 45 44 43 42 41 41 40 40 41 41 40 33 38 42 39 31 16 1 1 8 5 3 -0 -6 -6 8 3 3 5 24 19 13 13 15 18 19 19 21 22 18 17 18 17
45 46 46 46 44 42 41 41 41 39 39 41 41 37 40 41 42 40 34 22 13 11 9 7 2 -1 -4 -2 8 3 4 -3 16 29 26 26 20 26 23 19 17 20 29 24 26 26 22
44 44 45 43 42 41 40 41 40 39 39 40 36 34 33 39 41 39 30 20 9 12 11 7 4 -2 3 6 6 6 4 12 25 28 28 26 24 21 22 32 21 22 23 27 28 23 16
43 44 43 43 41 40 39 40 39 39 40 40 36 31 36 37 42 34 30 16 12 12 14 10 9 8 9 10 10 9 8 9 25 24 23 26 28 23 23 33 26 22 24 29 31 28 22
42 44 43 42 40 39 39 39 39 39 40 39 35 33 35 39 34 27 23 17 19 11 14 13 15 14 13 12 12 12 11 11 25 27 23 32 28 23 22 24 34 33 23 27 29 25 24
42 44 42 41 39 39 39 40 39 40 39 37 28 28 32 38 33 23 21 15 14 12 12 13 13 12 14 13 13 13 15 18 27 25 25 28 23 21 18 18 33 33 33 32 31 33 32
42 42 40 38 38 40 39 39 38 39 40 37 32 35 29 29 24 26 21 15 14 17 13 13 14 14 15 16 17 16 19 23 25 21 36 34 26 20 20 21 25 31 32 31 33 33 30
42 41 39 39 39 39 39 39 39 39 40 38 33 33 28 29 23 21 19 17 14 13 13 14 13 16 17 17 17 16 16 17 16 32 34 34 27 23 22 22 24 27 34 27 29 31 32
41 39 38 40 40 41 39 38 39 39 40 36 37 29 23 25 20 19 17 15 11 10 14 14 15 14 14 13 14 14 17 18 21 22 35 28 24 28 23 21 23 31 31 33 33 33 31
41 40 39 40 40 39 39 38 39 39 39 31 29 30 31 23 21 23 23 16 13 15 17 14 14 15 15 14 16 17 18 19 20 23 28 26 25 24 20 22 29 30 23 24 20 28 29
39 39 38 38 40 39 39 38 38 39 39 36 31 28 29 23 17 16 15 16 18 17 18 18 18 20 18 24 22 21 19 19 20 22 24 25 26 27 22 25 23 20 18 18 31 31 31
39 40 38 37 39 40 40 39 39 40 40 37 31 33 30 31 16 16 17 17 18 20 20 20 21 20 24 23 23 19 19 19 21 21 21 26 26 26 26 25 22 23 22 22 25 35 32
40 39 38 37 40 40 40 39 38 39 40 39 35 36 33 35 21 19 19 19 21 21 21 24 24 25 27 30 25 18 14 25 19 15 19 23 31 29 30 19 17 33 27 26 24 32 34
40 38 38 40 40 40 40 39 40 39 40 39 41 40 35 34 28 25 24 23 23 24 24 24 27 26 30 28 25 24 21 19 19 13 20 23 28 28 28 20 31 30 30 28 21 31 33
41 39 39 40 40 40 41 40 40 39 39 40 42 41 38 36 31 28 28 26 25 26 26 28 25 29 28 28 27 26 26 26 22 21 24 22 22 23 24 20 24 32 30 28 32 34 32
40 39 40 40 41 40 40 40 39 40 39 40 40 39 37 37 31 35 34 33 31 29 27 28 28 33 32 28 25 27 28 30 28 25 27 29 31 32 32 30 33 31 31 31 33 33 32